KC8BSD Weather Reports


time (UTC)temp
F
wind
direction
speed
knots
gust
knots
rain 1hr
in
rain 24hr
in
rain mn
in
humidity
%
barometer
mb
20260509032148 46 264 0.0 0.0 0.00 0.00 0.00 66 1009.3
20260509031646 46 268 0.0 0.0 0.00 0.00 0.00 67 1009.4
20260509031143 46 267 0.0 0.0 0.00 0.00 0.00 66 1009.5
20260509030641 46 258 0.0 0.0 0.00 0.00 0.00 66 1009.2
20260509030138 46 258 0.0 0.0 0.00 0.00 0.00 65 1009.5
20260509025634 45 264 0.0 0.0 0.00 0.00 0.00 66 1009.4
20260509025130 45 263 0.0 0.0 0.00 0.00 0.00 66 1009.5
20260509024625 45 264 0.0 0.0 0.00 0.00 0.00 65 1009.6
20260509024121 46 264 0.0 0.0 0.00 0.00 0.00 64 1009.5
20260509023620 46 264 0.0 0.0 0.00 0.00 0.00 64 1009.5
20260509023116 46 264 0.0 0.0 0.00 0.00 0.00 63 1009.3
20260509022612 46 264 0.0 0.0 0.00 0.00 0.00 63 1009.5
20260509022105 46 264 0.0 0.0 0.00 0.00 0.00 63 1009.4
20260509021602 47 264 0.0 0.0 0.00 0.00 0.00 62 1009.5
20260509021058 47 264 0.0 0.0 0.00 0.00 0.00 61 1009.3
20260509020556 48 264 0.0 0.0 0.00 0.00 0.00 60 1009.3
20260509020053 48 264 0.0 0.0 0.00 0.00 0.00 59 1008.9
20260509015547 49 264 0.0 0.0 0.00 0.00 0.00 59 1009.0
20260509015044 49 264 0.0 0.0 0.00 0.00 0.00 58 1009.0
20260509014540 50 264 0.0 0.0 0.00 0.00 0.00 57 1009.2
20260509014036 50 264 0.0 0.0 0.00 0.00 0.00 56 1009.0
20260509013534 51 264 0.0 0.0 0.00 0.00 0.00 55 1008.9
20260509013029 52 264 0.0 0.0 0.00 0.00 0.00 53 1008.7
20260509012526 52 264 0.0 0.0 0.00 0.00 0.00 53 1008.6
20260509012023 53 260 0.0 0.0 0.00 0.00 0.00 51 1008.6
20260509011521 54 264 0.0 0.0 0.00 0.00 0.00 49 1008.5
20260509011018 54 265 0.0 0.0 0.00 0.00 0.00 47 1008.6
20260509010515 54 266 0.0 0.0 0.00 0.00 0.00 47 1008.5
20260509010012 55 258 0.0 0.0 0.00 0.00 0.00 46 1008.2
20260509005509 56 258 0.0 0.0 0.00 0.00 0.00 44 1008.2
20260509005004 57 258 0.0 0.0 0.00 0.00 0.00 42 1008.4
20260509004501 58 267 0.0 0.0 0.00 0.00 0.00 42 1008.1
20260509003958 59 260 0.0 0.0 0.00 0.00 0.00 41 1007.9
20260509003457 60 262 0.0 0.0 0.00 0.00 0.00 39 1008.2
20260509002953 60 261 0.0 0.9 0.00 0.00 0.00 38 1008.3
20260509002451 61 265 0.0 0.0 0.00 0.00 0.00 39 1008.1
20260509001948 61 198 0.9 0.9 0.00 0.00 0.00 37 1007.8
20260509001444 61 67 0.9 1.7 0.00 0.00 0.00 40 1007.9
20260509000941 62 261 0.0 0.0 0.00 0.00 0.00 39 1007.7
20260509000440 62 268 0.0 0.9 0.00 0.00 0.00 38 1007.9
20260508235935 62 300 0.9 0.9 0.00 0.00 0.00 39 1008.0
20260508235433 62 189 0.9 1.7 0.00 0.00 0.00 41 1007.7
20260508234929 62 247 0.0 0.0 0.00 0.00 0.00 40 1008.1
20260508234426 62 248 0.0 0.0 0.00 0.00 0.00 40 1007.8
20260508233924 63 72 2.6 4.3 0.00 0.00 0.00 38 1008.1
20260508233423 63 265 0.0 0.9 0.00 0.00 0.00 39 1008.0
20260508232920 63 250 0.0 0.9 0.00 0.00 0.00 39 1007.8
20260508232417 63 348 1.7 1.7 0.00 0.00 0.00 37 1007.7
20260508231914 62 347 0.9 1.7 0.00 0.00 0.00 37 1007.9
20260508231411 63 268 0.9 0.9 0.00 0.00 0.00 39 1008.0
20260508230908 63 265 0.9 0.9 0.00 0.00 0.00 38 1007.9
20260508230404 63 189 0.9 1.7 0.00 0.00 0.00 40 1007.9
20260508225901 64 342 0.0 0.0 0.00 0.00 0.00 39 1008.1
20260508225358 65 254 0.0 0.9 0.00 0.00 0.00 38 1007.8
20260508224856 64 332 1.7 2.6 0.00 0.00 0.00 36 1008.0
20260508224353 65 275 2.6 2.6 0.00 0.00 0.00 36 1007.9
20260508223851 66 340 2.6 2.6 0.00 0.00 0.00 34 1008.0
20260508223348 66 139 3.5 5.2 0.00 0.00 0.00 36 1008.0
20260508222846 66 28 0.9 1.7 0.00 0.00 0.00 35 1008.0
20260508222342 65 355 0.0 0.0 0.00 0.00 0.00 37 1008.0
20260508221839 64 48 1.7 1.7 0.00 0.00 0.00 35 1008.1
20260508221334 65 241 0.0 0.9 0.00 0.00 0.00 39 1008.2
20260508220831 66 75 1.7 2.6 0.00 0.00 0.00 35 1008.1
20260508220327 66 267 0.9 0.9 0.00 0.00 0.00 37 1008.0
20260508215824 66 236 0.9 0.9 0.00 0.00 0.00 39 1008.0
20260508215321 66 87 5.2 7.8 0.00 0.00 0.00 34 1008.2
20260508214818 68 227 0.9 1.7 0.00 0.00 0.00 34 1008.0
20260508214315 68 197 1.7 1.7 0.00 0.00 0.00 35 1008.2
20260508213811 67 78 2.6 4.3 0.00 0.00 0.00 33 1008.1
20260508213308 67 296 0.0 0.0 0.00 0.00 0.00 39 1008.3
20260508212804 64 322 0.9 0.9 0.00 0.00 0.00 35 1008.3
20260508212301 64 246 0.0 0.9 0.00 0.00 0.00 36 1008.3
20260508211756 66 31 3.5 5.2 0.00 0.00 0.00 33 1008.3
20260508211252 67 26 2.6 2.6 0.00 0.00 0.00 34 1008.4
20260508210750 67 219 2.6 4.3 0.00 0.00 0.00 35 1008.4
20260508210247 65 246 0.9 0.9 0.00 0.00 0.00 35 1008.7
20260508205744 66 298 0.0 0.0 0.00 0.00 0.00 35 1008.5
20260508205240 68 28 1.7 2.6 0.00 0.00 0.00 32 1008.5
20260508204737 68 67 1.7 1.7 0.00 0.00 0.00 32 1008.6
20260508204233 67 24 2.6 2.6 0.00 0.00 0.00 33 1008.8
20260508203729 67 261 3.5 5.2 0.00 0.00 0.00 33 1008.5
20260508203225 68 33 2.6 2.6 0.00 0.00 0.00 33 1008.6
20260508202721 66 253 2.6 4.3 0.00 0.00 0.00 34 1008.9
20260508202219 65 67 1.7 2.6 0.00 0.00 0.00 37 1008.8
20260508201716 68 253 0.9 0.9 0.00 0.00 0.00 34 1008.8
20260508201212 67 56 1.7 2.6 0.00 0.00 0.00 33 1009.4
20260508200709 67 271 0.9 1.7 0.00 0.00 0.00 33 1009.4
20260508200205 66 218 2.6 4.3 0.00 0.00 0.00 38 1009.4
20260508195702 66 216 1.7 1.7 0.00 0.00 0.00 33 1009.4
20260508195158 67 37 1.7 2.6 0.00 0.00 0.00 35 1009.8
20260508194655 67 270 0.9 0.9 0.00 0.00 0.00 36 1009.7
20260508194152 68 262 1.7 1.7 0.00 0.00 0.00 34 1009.8
20260508193649 67 296 4.3 6.1 0.00 0.00 0.00 36 1009.7
20260508193145 66 240 3.5 4.3 0.00 0.00 0.00 36 1009.7
20260508192642 66 260 0.9 0.9 0.00 0.00 0.00 34 1010.1
20260508192140 66 241 1.7 1.7 0.00 0.00 0.00 35 1009.9
20260508191636 67 285 1.7 1.7 0.00 0.00 0.00 37 1010.0
20260508191133 67 219 1.7 2.6 0.00 0.00 0.00 38 1010.3
20260508190630 68 283 2.6 5.2 0.00 0.00 0.00 33 1010.0
20260508190127 66 14 3.5 4.3 0.00 0.00 0.00 33 1010.3
20260508185624 66 257 2.6 2.6 0.00 0.00 0.00 37 1010.3
20260508185121 65 243 0.9 0.9 0.00 0.00 0.00 38 1010.2
20260508184618 65 212 0.0 0.9 0.00 0.00 0.00 37 1010.3
20260508184115 66 24 1.7 2.6 0.00 0.00 0.00 32 1010.4
20260508183612 67 70 0.9 1.7 0.00 0.00 0.00 33 1010.6
20260508183108 68 13 1.7 2.6 0.00 0.00 0.00 32 1010.7
20260508182604 66 243 0.9 1.7 0.00 0.00 0.00 38 1010.6
20260508182101 67 219 0.9 0.9 0.00 0.00 0.00 37 1010.8
20260508181555 66 262 0.9 1.7 0.00 0.00 0.00 38 1010.6
20260508181054 66 13 2.6 4.3 0.00 0.00 0.00 31 1010.6
20260508180550 66 251 2.6 2.6 0.00 0.00 0.00 35 1010.7
20260508180046 66 16 2.6 2.6 0.00 0.00 0.00 33 1010.6
20260508175542 64 353 0.0 0.9 0.00 0.00 0.00 38 1010.9
20260508175040 65 236 0.9 0.9 0.00 0.00 0.00 38 1011.2
20260508174537 66 46 1.7 1.7 0.00 0.00 0.00 33 1011.2
20260508174035 65 235 0.9 1.7 0.00 0.00 0.00 35 1011.4
20260508173531 64 216 1.7 1.7 0.00 0.00 0.00 34 1011.5
20260508173027 65 318 2.6 5.2 0.00 0.00 0.00 31 1011.6
20260508172525 64 71 2.6 2.6 0.00 0.00 0.00 32 1011.5
20260508172021 63 104 2.6 2.6 0.00 0.00 0.00 34 1011.5
20260508171518 63 239 1.7 2.6 0.00 0.00 0.00 41 1011.9
20260508171014 63 252 1.7 1.7 0.00 0.00 0.00 34 1011.7
20260508170511 63 44 3.5 4.3 0.00 0.00 0.00 32 1011.9
20260508170009 62 126 1.7 2.6 0.00 0.00 0.00 38 1012.0
20260508165506 63 244 0.9 0.9 0.00 0.00 0.00 36 1011.8
20260508165002 63 31 2.6 4.3 0.00 0.00 0.00 34 1012.0
20260508164459 63 40 2.6 4.3 0.00 0.00 0.00 32 1012.1
20260508163956 63 284 1.7 1.7 0.00 0.00 0.00 35 1012.0
20260508163454 62 305 0.9 0.9 0.00 0.00 0.00 38 1012.1
20260508162949 63 253 0.9 0.9 0.00 0.00 0.00 36 1012.2
20260508162447 63 219 4.3 4.3 0.00 0.00 0.00 40 1012.2
20260508161944 63 199 0.9 1.7 0.00 0.00 0.00 37 1012.4
20260508161441 63 247 0.9 0.9 0.00 0.00 0.00 43 1012.2
20260508160938 62 214 0.9 1.7 0.00 0.00 0.00 37 1012.6
20260508160437 61 238 0.9 0.9 0.00 0.00 0.00 43 1012.5
20260508155932 61 352 0.9 0.9 0.00 0.00 0.00 40 1012.6
20260508155430 60 337 0.9 1.7 0.00 0.00 0.00 41 1012.6
20260508154927 60 282 1.7 1.7 0.00 0.00 0.00 39 1012.7
20260508154425 62 59 2.6 2.6 0.00 0.00 0.00 40 1012.6
20260508153921 61 53 0.9 0.9 0.00 0.00 0.00 40 1012.6
20260508153418 60 237 0.0 0.9 0.00 0.00 0.00 47 1012.7
20260508152914 59 236 1.7 1.7 0.00 0.00 0.00 47 1012.8
20260508152411 59 255 0.9 0.9 0.00 0.00 0.00 47 1012.8
20260508151907 60 249 0.0 0.0 0.00 0.00 0.00 47 1012.8
20260508151404 58 311 1.7 1.7 0.00 0.00 0.00 46 1012.8
20260508150900 59 261 0.0 0.9 0.00 0.00 0.00 46 1013.1
20260508150357 58 279 0.0 0.9 0.00 0.00 0.00 47 1013.0
20260508145853 59 266 0.9 1.7 0.00 0.00 0.00 48 1013.2
20260508145349 58 235 2.6 2.6 0.00 0.00 0.00 50 1013.1
20260508144846 58 216 1.7 1.7 0.00 0.00 0.00 49 1013.1
20260508144344 57 287 0.0 0.0 0.00 0.00 0.00 48 1013.1
20260508143841 57 263 0.9 0.9 0.00 0.00 0.00 49 1013.2
20260508143338 59 300 0.0 0.9 0.00 0.00 0.00 48 1013.2
20260508142835 58 41 1.7 1.7 0.00 0.00 0.00 48 1013.3
20260508142332 58 213 0.9 0.9 0.00 0.00 0.00 52 1013.4
20260508141828 57 263 0.0 0.9 0.00 0.00 0.00 54 1013.4
20260508141325 55 239 1.7 1.7 0.00 0.00 0.00 53 1013.4
20260508140823 56 309 1.7 1.7 0.00 0.00 0.00 52 1013.5
20260508140320 56 246 0.0 0.0 0.00 0.00 0.00 54 1013.5
20260508135815 55 256 0.0 0.0 0.00 0.00 0.00 58 1013.5
20260508135312 55 48 0.9 1.7 0.00 0.00 0.00 59 1013.5
20260508134808 55 238 0.9 0.9 0.00 0.00 0.00 65 1013.6
20260508134306 55 254 0.0 0.0 0.00 0.00 0.00 63 1013.7
20260508133802 53 259 0.0 0.0 0.00 0.00 0.00 66 1013.6
20260508133300 53 260 0.0 0.0 0.00 0.00 0.00 65 1013.7
20260508132757 51 240 0.9 0.9 0.00 0.00 0.00 69 1013.8
20260508132254 51 241 0.9 0.9 0.00 0.00 0.00 72 1013.7
20260508131750 52 268 0.9 0.9 0.00 0.00 0.00 71 1013.9
20260508131246 51 255 0.0 0.9 0.00 0.00 0.00 73 1013.9
20260508130743 49 231 0.9 1.7 0.00 0.00 0.00 75 1013.7
20260508130240 49 250 0.0 0.0 0.00 0.00 0.00 78 1013.8
20260508125736 48 210 1.7 2.6 0.00 0.00 0.00 78 1013.8
20260508125232 48 245 0.9 0.9 0.00 0.00 0.00 79 1013.9
20260508124731 48 213 1.7 1.7 0.00 0.00 0.00 80 1013.8
20260508124228 47 247 0.9 0.9 0.00 0.00 0.00 82 1013.5
20260508123726 46 244 1.7 1.7 0.00 0.00 0.00 82 1013.6
20260508123224 47 226 0.9 0.9 0.00 0.00 0.00 83 1013.7
20260508122719 46 222 1.7 2.6 0.00 0.00 0.00 85 1013.7
20260508122216 45 255 0.0 0.9 0.00 0.00 0.00 88 1013.6
20260508121714 45 224 0.9 0.9 0.00 0.00 0.00 90 1013.5
20260508121213 44 233 0.9 1.7 0.00 0.00 0.00 93 1013.6
20260508120709 44 252 0.0 0.9 0.00 0.00 0.00 94 1013.5
20260508120208 44 246 0.0 0.0 0.00 0.00 0.00 94 1013.6
20260508115705 43 242 0.0 0.0 0.00 0.00 0.00 95 1013.6
20260508115202 43 258 0.0 0.0 0.00 0.00 0.00 95 1013.6
20260508114658 43 260 0.0 0.0 0.00 0.00 0.00 95 1013.5
20260508114155 42 260 0.0 0.0 0.00 0.00 0.00 95 1013.6
20260508113652 41 260 0.0 0.0 0.00 0.00 0.00 94 1013.4
20260508113150 41 267 0.0 0.0 0.00 0.00 0.00 94 1013.6
20260508112646 40 258 0.0 0.0 0.00 0.00 0.00 94 1013.4
20260508112143 39 250 0.0 0.0 0.00 0.00 0.00 94 1013.4
20260508111639 37 260 0.0 0.0 0.00 0.00 0.00 93 1013.5
20260508111137 36 260 0.0 0.0 0.00 0.00 0.00 93 1013.4
20260508110635 36 260 0.0 0.0 0.00 0.00 0.00 93 1013.3
20260508110131 35 260 0.0 0.0 0.00 0.00 0.00 93 1013.2
20260508105626 35 260 0.0 0.0 0.00 0.00 0.00 93 1013.3
20260508105123 35 260 0.0 0.0 0.00 0.00 0.00 93 1013.3
20260508104621 35 260 0.0 0.0 0.00 0.00 0.00 92 1013.1
20260508104117 35 260 0.0 0.0 0.00 0.00 0.00 92 1013.2
20260508103615 35 260 0.0 0.0 0.00 0.00 0.00 92 1013.2
20260508103112 35 260 0.0 0.0 0.00 0.00 0.00 92 1013.2
20260508102609 35 260 0.0 0.0 0.00 0.00 0.00 92 1013.1
20260508102107 35 262 0.0 0.0 0.00 0.00 0.00 92 1013.2
20260508101604 35 262 0.0 0.0 0.00 0.00 0.00 92 1013.1
20260508101101 35 262 0.0 0.0 0.00 0.00 0.00 92 1013.1
20260508100559 35 262 0.0 0.0 0.00 0.00 0.00 91 1013.3
20260508100055 36 262 0.0 0.0 0.00 0.00 0.00 91 1013.2
20260508095553 36 262 0.0 0.0 0.00 0.00 0.00 91 1013.3
20260508095049 37 264 0.0 0.0 0.00 0.00 0.00 91 1013.4
20260508094547 37 264 0.0 0.0 0.00 0.00 0.00 91 1013.4
20260508094044 37 264 0.0 0.0 0.00 0.00 0.00 91 1013.3
20260508093541 36 266 0.0 0.0 0.00 0.00 0.00 91 1013.3
20260508093038 36 261 0.0 0.0 0.00 0.00 0.00 90 1013.3
20260508092535 36 261 0.0 0.0 0.00 0.00 0.00 90 1013.4
20260508092035 36 261 0.0 0.0 0.00 0.00 0.00 90 1013.3
20260508091531 37 261 0.0 0.0 0.00 0.00 0.00 90 1013.3
20260508091028 37 261 0.0 0.0 0.00 0.00 0.00 90 1013.2
20260508090526 37 262 0.0 0.0 0.00 0.00 0.00 90 1013.3
20260508090022 38 260 0.0 0.0 0.00 0.00 0.00 89 1013.2
20260508085519 38 263 0.0 0.0 0.00 0.00 0.00 89 1013.3
20260508085016 38 262 0.0 0.0 0.00 0.00 0.00 89 1013.2
20260508084513 38 262 0.0 0.0 0.00 0.00 0.00 89 1013.4
20260508084010 39 263 0.0 0.0 0.00 0.00 0.00 89 1013.2
20260508083507 39 265 0.0 0.0 0.00 0.00 0.00 88 1013.1
20260508083004 39 263 0.0 0.0 0.00 0.00 0.00 88 1013.1
20260508082500 39 265 0.0 0.0 0.00 0.00 0.00 88 1013.2
20260508081957 39 265 0.0 0.0 0.00 0.00 0.00 87 1013.3
20260508081454 40 266 0.0 0.0 0.00 0.00 0.00 87 1013.2
20260508080950 39 260 0.0 0.0 0.00 0.00 0.00 86 1013.1
20260508080448 40 260 0.0 0.0 0.00 0.00 0.00 86 1013.3
20260508075945 40 265 0.0 0.0 0.00 0.00 0.00 86 1013.3
20260508075442 40 265 0.0 0.0 0.00 0.00 0.00 85 1013.2
20260508074940 41 260 0.0 0.0 0.00 0.00 0.00 85 1013.4
20260508074437 41 260 0.0 0.0 0.00 0.00 0.00 85 1013.4
20260508073934 41 260 0.0 0.0 0.00 0.00 0.00 84 1013.3
20260508073432 42 259 0.0 0.0 0.00 0.00 0.00 83 1013.3
20260508072928 42 259 0.0 0.0 0.00 0.00 0.00 83 1013.1
20260508072424 43 258 0.0 0.0 0.00 0.00 0.00 83 1013.3
20260508071922 43 250 0.0 0.0 0.00 0.00 0.00 82 1013.3
20260508071420 43 261 0.0 0.0 0.00 0.00 0.00 82 1013.3
20260508070917 43 262 0.0 0.0 0.00 0.00 0.00 81 1013.3
20260508070415 44 261 0.0 0.0 0.00 0.00 0.00 80 1013.4
20260508065913 44 261 0.0 0.0 0.00 0.00 0.00 80 1013.3
20260508065410 44 260 0.0 0.0 0.00 0.00 0.00 80 1013.3
20260508064909 44 264 0.0 0.0 0.00 0.00 0.00 80 1013.6
20260508064405 44 264 0.0 0.0 0.00 0.00 0.00 80 1013.6
20260508063903 44 264 0.0 0.0 0.00 0.00 0.00 80 1013.4
20260508063401 44 261 0.0 0.0 0.00 0.00 0.00 79 1013.4
20260508062858 44 262 0.0 0.0 0.00 0.00 0.00 79 1013.5
20260508062355 44 262 0.0 0.0 0.00 0.00 0.00 78 1013.2
20260508061852 44 262 0.0 0.0 0.00 0.00 0.00 78 1013.4
20260508061349 45 262 0.0 0.0 0.00 0.00 0.00 78 1013.5
20260508060846 45 263 0.0 0.0 0.00 0.00 0.00 77 1013.5
20260508060344 45 261 0.0 0.0 0.00 0.00 0.00 77 1013.3
20260508055838 45 266 0.0 0.0 0.00 0.00 0.00 77 1013.5
20260508055336 45 281 0.0 0.0 0.00 0.00 0.00 77 1013.5
20260508054832 44 267 0.0 0.0 0.00 0.00 0.00 77 1013.5
20260508054330 44 259 0.0 0.0 0.00 0.00 0.00 77 1013.5
20260508053827 44 261 0.0 0.0 0.00 0.00 0.00 77 1013.3
20260508053324 44 261 0.0 0.0 0.00 0.00 0.00 76 1013.6
20260508052822 44 261 0.0 0.0 0.00 0.00 0.00 76 1013.5
20260508052319 44 263 0.0 0.0 0.00 0.00 0.00 76 1013.6
20260508051815 44 263 0.0 0.0 0.00 0.00 0.00 76 1013.5
20260508051310 44 263 0.0 0.0 0.00 0.00 0.00 76 1013.5
20260508050807 43 263 0.0 0.0 0.00 0.00 0.00 75 1013.6
20260508050304 44 264 0.0 0.0 0.00 0.00 0.00 75 1013.6
20260508045800 44 264 0.0 0.0 0.00 0.00 0.00 74 1013.4
20260508045258 44 262 0.0 0.0 0.00 0.00 0.00 74 1013.5
20260508044755 44 258 0.0 0.0 0.00 0.00 0.00 73 1013.4
20260508044251 44 266 0.0 0.0 0.00 0.00 0.00 72 1013.4
20260508043747 44 265 0.0 0.0 0.00 0.00 0.00 73 1013.5
20260508043245 45 265 0.0 0.0 0.00 0.00 0.00 72 1013.3
20260508042741 45 261 0.0 0.0 0.00 0.00 0.00 70 1013.4
20260508042239 45 262 0.0 0.0 0.00 0.00 0.00 69 1013.4
20260508041736 45 280 0.0 0.0 0.00 0.00 0.00 68 1013.3
20260508041232 46 260 0.0 0.0 0.00 0.00 0.00 66 1013.4
20260508040729 47 266 0.0 0.0 0.00 0.00 0.00 64 1013.6
20260508040226 48 266 0.0 0.0 0.00 0.00 0.00 64 1013.5
20260508035723 48 266 0.0 0.0 0.00 0.00 0.00 62 1013.6
20260508035221 49 266 0.0 0.0 0.00 0.00 0.00 62 1013.2
20260508034717 49 266 0.0 0.0 0.00 0.00 0.00 61 1013.6
20260508034215 49 267 0.0 0.0 0.00 0.00 0.00 60 1013.6
20260508033711 49 265 0.0 0.0 0.00 0.00 0.00 64 1013.5
20260508033210 49 278 0.0 0.0 0.00 0.00 0.00 65 1013.4
20260508032707 49 262 0.0 0.0 0.00 0.00 0.00 64 1013.5